Regional Weather Roundup
Issued by NWS Sioux Falls, SD

Home | Current Version | Previous Version | Text Only | Print | Product List | Glossary On
Versions: 1 2 3 4 5 6 7 8 9 10 11 12 13 14 15 16 17 18 19 20 21 22 23 24 25 26 27 28 29 30 31 32 33 34 35 36 37 38 39 40 41 42 43 44 45 46 47 48 49 50
000
ASUS43 KFSD 301210
RWRFSD

WEATHER ROUNDUP FOR SE SOUTH DAKOTA/SW MINNESOTA/NW IOWA
NATIONAL WEATHER SERVICE SIOUX FALLS SD
700 AM CDT THU JUL 30 2015

NOTE: "FAIR" INDICATES FEW OR NO CLOUDS BELOW 12,000 FEET WITH NO
SIGNIFICANT WEATHER AND OR OBSTRUCTIONS TO VISIBILITY.


SDZ038>040-050-052>070-301300-
SOUTHEAST SOUTH DAKOTA

CITY           SKY/WX    TMP DP  RH WIND       PRES   REMARKS
BROOKINGS      CLEAR     57  52  82 CALM      30.15S
CHAMBERLAIN    CLEAR     54  52  94 CALM      30.15R
6HR MIN TEMP:  54; 6HR MAX TEMP:  67;

HURON          CLEAR     58  54  86 CALM      30.12S
6HR MIN TEMP:  56; 6HR MAX TEMP:  65;

MADISON        FAIR      57  55  94 CALM      30.14S
MITCHELL       CLEAR     58  56  93 S5        30.13S
6HR MIN TEMP:  56; 6HR MAX TEMP:  66;

SIOUX FALLS    PTCLDY    59  56  89 CALM      30.13S
6HR MIN TEMP:  57; 6HR MAX TEMP:  64;

WINNER         FAIR      65  51  60 W6        30.17R
YANKTON        PTCLDY    68  55  64 SW9       30.14R
$$

MNZ071-072-080-081-089-090-097-098-301300-
SOUTHWEST MINNESOTA

CITY           SKY/WX    TMP DP  RH WIND       PRES   REMARKS
FAIRMONT       CLEAR     64  54  68 W7        30.11R
JACKSON        CLEAR     63  55  77 SW6       30.12S
LUVERNE        CLEAR     57  54  88 CALM      30.14S
MARSHALL       CLEAR     64  52  63 W9        30.11R
6HR MIN TEMP:  63; 6HR MAX TEMP:  64;

MONTEVIDEO     CLEAR     61  55  82 NW3       30.10R
PIPESTONE      CLEAR     59  54  82 CALM      30.13F
REDWOOD FALLS  CLEAR     66  53  63 W10       30.08R
TRACY          CLEAR     61  55  82 W7        30.11S
WINDOM         CLEAR     57  54  88 CALM      30.12S
WORTHINGTON    CLEAR     61  52  72 W5        30.13S
$$

IAZ001>003-012>014-020>022-031-032-NEZ013-014-SDZ071-301300-
NORTHWEST IOWA

CITY           SKY/WX    TMP DP  RH WIND       PRES   REMARKS
CHEROKEE       CLEAR     57  57 100 CALM      30.15R
DENISON        CLEAR     61  59  94 W3        30.15S
ESTHERVILLE    CLEAR     59  56  89 W6        30.12S
LE MARS        CLEAR     59  59 100 CALM      30.15S
ORANGE CITY    CLEAR     59  55  88 CALM      30.14S
SHELDON          N/A     54  54 100 CALM      30.13S
SIOUX CITY     CLEAR     64  56  75 W3        30.15S
6HR MIN TEMP:  62; 6HR MAX TEMP:  68;

SPENCER        CLEAR     57  54  89 CALM      30.13S
6HR MIN TEMP:  54; 6HR MAX TEMP:  61;

STORM LAKE     CLEAR     61  59  94 W8        30.16R
$$

ABBREVIATIONS USED IN REMARKS
   TC - TEMPERATURE IN CELSIUS
  WCI - WIND CHILL INDEX
   HX - HEAT INDEX
  VSB - VISIBILITY



USA.gov is the U.S. government's official web portal to all federal, state and local government web resources and services.